Terug naar catalogus

STARLINK-4131

ActiefCommunicatieVLEO
NORAD 53246·PAYLOAD·🇺🇸 United States

Gelanceerd Jul 24, 2022 vanaf Cape Canaveral Space Force Station

Loading…

Volgende Passages (komende 24 uur)

TLE

VersSource: CelesTrak SupGP

Epoch: Sep 15, 2026, 02:39 UTC

1 53246C 22086E   26258.11090278 -.00033667  00000+0 -10828-2 0  2584
2 53246  53.1576  61.9231 0001111  88.5294  95.7772 15.31714460    11

Volg STARLINK-4131 in realtime met AllMySat

Download on the App Store